Vertical_Velocity
-4 -0 -7 -5 3 3 -6 -3 -1 -2 -1 0 1 1 1 1 0 -1 0 -2 -3 -2 -2 -2 -0 0 -2
4 -1 -2 -1 -2 -4 4 3 -7 -2 -1 -2 -1 0 -0 -0 2 1 0 -0 -1 -2 -1 -1 0 -2 -0
-5 -1 1 5 2 -3 -3 -1 3 -1 -6 -3 -0 -2 -1 -1 -1 0 2 3 0 -1 -1 -1 -0 -1 -2
-3 -2 -2 1 -3 3 -0 -1 -4 -1 0 -6 -7 -1 0 -2 0 2 1 -0 1 1 -0 -0 -0 -1 -1
-2 -1 -5 1 -0 -3 -4 2 1 -2 -1 2 1 -9 -8 -0 -1 -1 0 1 2 1 -1 1 1 -1 -1
-1 -2 -1 -2 1 -0 -0 -2 -10 1 -2 -1 3 6 -0 -6 -6 -4 -3 -0 -1 -0 1 2 -0 2 1
1 -3 -2 6 4 1 -0 -1 -1 4 -2 -7 1 -0 1 4 -1 -3 -3 -4 -4 -4 -1 -0 0 0 -0
-2 2 2 5 3 2 1 2 1 2 4 -9 2 -1 4 -1 -1 1 -0 -2 -3 -2 -2 -4 -3 -1 1
-1 -0 3 2 0 0 1 2 1 -0 1 -1 1 -4 0 1 3 3 3 2 3 0 -4 -2 -1 -3 -3
0 -2 0 1 2 -1 2 -1 4 -1 0 2 0 3 -2 -1 -1 2 2 2 0 1 -2 -4 -4 -4 -1
-2 1 2 1 1 1 -0 -0 -0 -1 -1 3 -4 0 -0 -0 1 0 -0 3 4 1 4 1 -3 -2 -5
-2 -0 -0 4 4 0 -1 -1 0 -1 1 1 -0 -1 2 -1 -1 -2 1 0 3 2 4 3 1 1 0
1 -0 -2 -1 -2 -2 0 0 -0 0 0 -1 2 4 1 -2 -3 2 4 1 -0 2 3 4 2 -2 1
-0 2 1 1 0 1 -1 1 1 -1 2 -0 -1 1 0 -0 2 -1 1 2 -0 0 1 1 1 -0 2
-2 5 2 1 -1 3 0 1 -0 1 1 2 0 1 -0 -3 -4 -1 4 -3 5 1 -1 -1 -2 -2 -2
1 0 -1 -1 -0 0 2 1 -1 -2 0 3 3 2 -0 -5 -1 -4 -0 -5 5 2 -1 -6 -4 4 0
1 3 1 -1 0 0 0 2 -0 -1 -2 2 3 2 1 -3 -1 -0 0 -1 1 -2 -0 -3 -1 3 0
Height
1464 1464 1463 1464 1464 1462 1460 1458 1457 1456 1454 1453 1452 1450 1449 1447 1446 1445 1444 1444 1444 1443 1443 1442 1441 1442 1441
1458 1458 1457 1457 1457 1457 1456 1454 1452 1451 1450 1449 1448 1447 1446 1445 1444 1442 1442 1441 1441 1441 1441 1441 1441 1440 1441
1451 1452 1452 1451 1450 1449 1449 1449 1447 1446 1445 1445 1444 1444 1443 1442 1441 1440 1439 1439 1438 1439 1439 1439 1440 1439 1439
1444 1444 1444 1445 1445 1443 1442 1441 1441 1441 1439 1439 1439 1439 1439 1438 1438 1437 1437 1436 1436 1436 1437 1437 1437 1438 1438
1438 1437 1436 1436 1437 1437 1435 1435 1434 1434 1434 1433 1432 1432 1434 1434 1434 1434 1433 1433 1433 1433 1434 1434 1435 1435 1435
1433 1431 1429 1429 1429 1430 1429 1427 1428 1428 1428 1429 1428 1428 1427 1427 1428 1428 1429 1430 1430 1430 1431 1431 1431 1432 1432
1425 1424 1424 1424 1424 1422 1422 1421 1421 1422 1421 1421 1423 1423 1422 1422 1422 1422 1423 1424 1425 1426 1427 1428 1428 1428 1429
1419 1420 1418 1418 1417 1417 1416 1415 1415 1416 1415 1413 1414 1416 1418 1417 1417 1416 1417 1417 1419 1420 1421 1422 1424 1425 1425
1415 1414 1414 1412 1412 1411 1411 1411 1410 1409 1411 1409 1408 1409 1411 1411 1411 1411 1412 1412 1413 1413 1415 1417 1418 1419 1421
1410 1409 1408 1407 1407 1405 1407 1407 1407 1406 1405 1406 1405 1405 1405 1405 1406 1406 1407 1408 1408 1409 1409 1410 1412 1413 1415
1401 1401 1401 1401 1402 1401 1401 1402 1402 1402 1402 1402 1402 1402 1403 1404 1404 1404 1404 1406 1405 1405 1405 1404 1406 1407 1408
1396 1396 1396 1395 1396 1395 1396 1396 1397 1397 1397 1398 1396 1397 1397 1398 1400 1401 1402 1402 1402 1402 1402 1401 1401 1402 1402
1392 1389 1390 1388 1390 1390 1391 1390 1390 1390 1390 1391 1392 1391 1392 1393 1394 1396 1397 1397 1397 1398 1398 1398 1397 1397 1397
1387 1385 1384 1383 1384 1384 1385 1385 1383 1384 1384 1384 1386 1386 1386 1388 1389 1389 1391 1391 1391 1391 1392 1392 1392 1392 1392
1382 1380 1379 1377 1378 1378 1379 1379 1378 1378 1378 1378 1379 1380 1381 1382 1382 1384 1384 1384 1385 1386 1386 1385 1386 1386 1387
1375 1374 1373 1372 1372 1373 1373 1373 1372 1373 1373 1373 1373 1373 1375 1376 1377 1377 1377 1378 1379 1379 1378 1378 1380 1381 1380
1369 1368 1367 1367 1367 1366 1367 1367 1366 1367 1367 1368 1368 1368 1368 1369 1371 1372 1372 1372 1373 1373 1373 1373 1374 1374 1375